{"data":{"norad_id":58086,"intl_designator":"2023-160M","name":"STARLINK-30583","alt_names":[],"object_type":"PAYLOAD","status":"ACTIVE","operator":null,"country":"US","launch_date":"2023-10-18","launch_site_code":"AFETR","launch_vehicle":null,"mission":null,"orbit_class":"UNKNOWN","rcs_meters":null,"size_class":null,"mass_kg":null,"dimensions":null,"purposes":["comms"],"wikipedia_slug":null,"has_3d_model":false,"image_url":null,"decayed_at":null,"tle_current":{"epoch":"2026-05-24T23:45:32.821344Z","epoch_age_seconds":69763,"freshness":"FRESH","line1":"1 58086U 23160M   26144.98996321  .00015243  00000+0  56211-3 0  9995","line2":"2 58086  43.0021  10.5016 0001088 272.2313  87.8414 15.27590545144575","mean_motion":15.27590545,"eccentricity":0.0001088,"inclination_deg":43.0021,"raan_deg":10.5016,"arg_perigee_deg":272.2313,"mean_anomaly_deg":87.8414,"bstar":0.00056211,"rev_number":14457,"period_min":94.266097987665,"perigee_km":482.2710270859,"apogee_km":483.7640143096,"semimajor_km":6861.1545206977,"source":"CELESTRAK","updated_at":"2026-05-25T13:38:18.523376Z"}}}